IBE14N FKKD-FZAA

Flight info

Callsign IBE14N
Flight time 1h 38m
Altitude 37000
Route GASUB1B GASUB DCT ETNOM UA604 BZ
Aircraft A320/M-SDE3FGHIRWY/LB1

Departure

Time 2026-04-27 12:44
Airport Douala International Airport (FKKD)

Arrival

Time 2026-04-27 14:22
Airport Ndjili International Airport (FZAA)
Time Latitude Longitude Altitude Speed Heading
2026-04-27 12:36 4.01056 9.71650 36 ft 0 kts 306°
2026-04-27 12:42 4.01062 9.71641 36 ft 9 kts 303°
2026-04-27 12:42 4.01110 9.71516 35 ft 23 kts 294°
2026-04-27 12:43 4.01080 9.71389 38 ft 20 kts 210°
2026-04-27 12:43 4.00947 9.71333 37 ft 20 kts 161°
2026-04-27 12:43 4.00815 9.71560 34 ft 73 kts 118°
2026-04-27 12:43 4.00480 9.72215 31 ft 136 kts 118°
2026-04-27 12:44 3.99992 9.73188 260 ft 165 kts 116°
2026-04-27 12:44 3.99452 9.74219 913 ft 167 kts 118°
2026-04-27 12:44 3.98930 9.75243 1633 ft 164 kts 117°
2026-04-27 12:44 3.98398 9.76296 2146 ft 176 kts 117°
2026-04-27 12:45 3.97821 9.77436 2640 ft 192 kts 117°
2026-04-27 12:45 3.97183 9.78672 3170 ft 208 kts 120°
2026-04-27 12:45 3.96080 9.79650 3706 ft 224 kts 159°
2026-04-27 12:45 3.94489 9.79692 4269 ft 241 kts 193°
2026-04-27 12:46 3.92878 9.79077 4789 ft 255 kts 205°
2026-04-27 12:46 3.91288 9.78223 5434 ft 261 kts 208°
2026-04-27 12:46 3.89699 9.77308 6161 ft 265 kts 208°
2026-04-27 12:46 3.88053 9.76372 6680 ft 281 kts 207°
2026-04-27 12:47 3.86301 9.75413 7265 ft 292 kts 206°
2026-04-27 12:47 3.84419 9.74656 8016 ft 293 kts 191°
2026-04-27 12:47 3.82430 9.74415 8798 ft 292 kts 175°
2026-04-27 12:47 3.80389 9.74486 9575 ft 295 kts 174°
2026-04-27 12:48 3.78319 9.74570 10215 ft 304 kts 174°
2026-04-27 12:48 3.76148 9.74662 10599 ft 320 kts 174°
2026-04-27 12:48 3.73864 9.74759 10949 ft 337 kts 175°
2026-04-27 12:48 3.71478 9.74853 11443 ft 347 kts 175°
2026-04-27 12:49 3.69052 9.74944 12118 ft 351 kts 175°
2026-04-27 12:49 3.66600 9.75032 12796 ft 354 kts 175°
2026-04-27 12:49 3.64122 9.75119 13476 ft 358 kts 176°
2026-04-27 12:49 3.61623 9.75205 14092 ft 361 kts 176°
2026-04-27 12:50 3.59097 9.75293 14683 ft 365 kts 176°
2026-04-27 12:50 3.56549 9.75384 15263 ft 368 kts 176°
2026-04-27 12:50 3.53974 9.75477 15837 ft 372 kts 176°
2026-04-27 12:50 3.51374 9.75575 16403 ft 376 kts 176°
2026-04-27 12:51 3.48748 9.75678 16964 ft 379 kts 176°
2026-04-27 12:51 3.46096 9.75780 17508 ft 383 kts 176°
2026-04-27 12:51 3.43421 9.75881 18066 ft 387 kts 176°
2026-04-27 12:51 3.40716 9.75981 18549 ft 391 kts 176°
2026-04-27 12:52 3.37990 9.76080 19033 ft 394 kts 176°
2026-04-27 12:52 3.35243 9.76180 19528 ft 397 kts 176°
2026-04-27 12:52 3.32508 9.76280 20009 ft 400 kts 176°
2026-04-27 12:52 3.29722 9.76383 20512 ft 402 kts 176°
2026-04-27 12:53 3.24082 9.76596 21504 ft 408 kts 176°
2026-04-27 12:53 3.21235 9.76701 21994 ft 411 kts 176°
2026-04-27 12:53 3.18362 9.76805 22479 ft 414 kts 176°
2026-04-27 12:54 3.15476 9.76913 22947 ft 417 kts 175°
2026-04-27 12:54 3.12609 9.77353 23415 ft 417 kts 163°
2026-04-27 12:54 3.09910 9.78392 23796 ft 417 kts 150°
2026-04-27 12:54 3.07484 9.79988 24175 ft 418 kts 139°
2026-04-27 12:55 3.05446 9.82058 24538 ft 418 kts 127°
2026-04-27 12:55 3.03833 9.84479 24892 ft 420 kts 120°
2026-04-27 12:55 3.02293 9.86973 25230 ft 423 kts 120°
2026-04-27 12:55 3.00745 9.89483 25581 ft 425 kts 120°
2026-04-27 12:56 2.99184 9.92007 25924 ft 428 kts 120°
2026-04-27 12:56 2.97612 9.94543 26268 ft 430 kts 121°
2026-04-27 12:56 2.96030 9.97092 26603 ft 433 kts 120°
2026-04-27 12:56 2.94438 9.99656 26920 ft 435 kts 121°
2026-04-27 12:57 2.92837 10.02233 27240 ft 437 kts 121°
2026-04-27 12:57 2.91225 10.04830 27559 ft 440 kts 121°
2026-04-27 12:57 2.89630 10.07398 27861 ft 442 kts 120°
2026-04-27 12:57 2.88004 10.10019 28177 ft 445 kts 121°
2026-04-27 12:58 2.86370 10.12656 28486 ft 447 kts 121°
2026-04-27 12:58 2.84729 10.15306 28792 ft 449 kts 121°
2026-04-27 12:58 2.83081 10.17968 29089 ft 451 kts 121°
2026-04-27 12:58 2.81424 10.20641 29381 ft 453 kts 121°
2026-04-27 12:59 2.79757 10.23328 29665 ft 455 kts 121°
2026-04-27 12:59 2.78086 10.26024 29951 ft 457 kts 121°
2026-04-27 12:59 2.76407 10.28737 30192 ft 459 kts 121°
2026-04-27 12:59 2.74722 10.31458 30435 ft 461 kts 121°
2026-04-27 13:00 2.73032 10.34184 30676 ft 462 kts 121°
2026-04-27 13:00 2.71333 10.36920 30911 ft 463 kts 121°
2026-04-27 13:00 2.69631 10.39657 31146 ft 465 kts 121°
2026-04-27 13:00 2.67923 10.42409 31351 ft 466 kts 120°
2026-04-27 13:01 2.66215 10.45163 31656 ft 465 kts 120°
2026-04-27 13:01 2.64517 10.47905 31979 ft 463 kts 120°
2026-04-27 13:01 2.62822 10.50641 32307 ft 462 kts 120°
2026-04-27 13:01 2.61132 10.53367 32622 ft 461 kts 120°
2026-04-27 13:02 2.59443 10.56089 32947 ft 460 kts 120°
2026-04-27 13:02 2.57757 10.58802 33280 ft 459 kts 120°
2026-04-27 13:02 2.56073 10.61510 33611 ft 458 kts 120°
2026-04-27 13:02 2.54417 10.64177 33958 ft 457 kts 120°
2026-04-27 13:03 2.52726 10.66905 34256 ft 455 kts 120°
2026-04-27 13:03 2.51082 10.69553 34547 ft 454 kts 120°
2026-04-27 13:03 2.49235 10.72103 34863 ft 454 kts 129°
2026-04-27 13:03 2.46991 10.74323 35161 ft 454 kts 139°
2026-04-27 13:04 2.44419 10.76153 35446 ft 454 kts 144°
2026-04-27 13:04 2.41772 10.77873 35701 ft 453 kts 144°
2026-04-27 13:04 2.39133 10.79595 35959 ft 452 kts 144°
2026-04-27 13:04 2.36513 10.81310 36217 ft 451 kts 144°
2026-04-27 13:05 2.33888 10.83034 36468 ft 450 kts 144°
2026-04-27 13:05 2.31278 10.84751 36714 ft 448 kts 144°
2026-04-27 13:05 2.28678 10.86462 36896 ft 448 kts 144°
2026-04-27 13:05 2.26081 10.88168 36932 ft 445 kts 144°
2026-04-27 13:06 2.20912 10.91557 36932 ft 444 kts 144°
2026-04-27 13:06 2.15743 10.94940 36929 ft 444 kts 144°
2026-04-27 13:07 2.10577 10.98325 36929 ft 444 kts 144°
2026-04-27 13:07 2.05407 11.01714 36923 ft 444 kts 144°
2026-04-27 13:08 2.00235 11.05102 36934 ft 444 kts 144°
2026-04-27 13:08 1.95067 11.08491 36936 ft 444 kts 144°
2026-04-27 13:09 1.89891 11.11879 36937 ft 444 kts 144°
2026-04-27 13:09 1.84723 11.15266 36934 ft 444 kts 144°
2026-04-27 13:10 1.79558 11.18658 36937 ft 444 kts 144°
2026-04-27 13:10 1.74388 11.22048 36936 ft 444 kts 144°
2026-04-27 13:11 1.69213 11.25424 36939 ft 444 kts 144°
2026-04-27 13:11 1.64076 11.28784 36939 ft 444 kts 144°
2026-04-27 13:12 1.58912 11.32167 36936 ft 444 kts 144°
2026-04-27 13:12 1.53752 11.35552 36932 ft 444 kts 144°
2026-04-27 13:13 1.48589 11.38936 36938 ft 443 kts 144°
2026-04-27 13:13 1.43434 11.42317 36933 ft 443 kts 144°
2026-04-27 13:14 1.38275 11.45692 36936 ft 443 kts 144°
2026-04-27 13:14 1.33119 11.49065 36926 ft 443 kts 144°
2026-04-27 13:15 1.27967 11.52438 36932 ft 443 kts 144°
2026-04-27 13:15 1.22813 11.55809 36927 ft 443 kts 144°
2026-04-27 13:16 1.17662 11.59181 36925 ft 443 kts 144°
2026-04-27 13:16 1.12511 11.62562 36924 ft 443 kts 144°
2026-04-27 13:17 1.07358 11.65938 36921 ft 443 kts 144°
2026-04-27 13:17 1.02229 11.69295 36924 ft 444 kts 144°
2026-04-27 13:18 0.97062 11.72668 36919 ft 444 kts 144°
2026-04-27 13:18 0.91890 11.76051 36917 ft 444 kts 144°
2026-04-27 13:19 0.86709 11.79446 36918 ft 445 kts 144°
2026-04-27 13:19 0.81531 11.82833 36916 ft 445 kts 144°
2026-04-27 13:20 0.76405 11.86188 36912 ft 445 kts 144°
2026-04-27 13:20 0.71229 11.89577 36909 ft 445 kts 144°
2026-04-27 13:21 0.66057 11.92961 36913 ft 444 kts 144°
2026-04-27 13:21 0.60900 11.96333 36912 ft 444 kts 144°
2026-04-27 13:22 0.55727 11.99720 36915 ft 444 kts 144°
2026-04-27 13:22 0.50552 12.03109 36913 ft 444 kts 144°
2026-04-27 13:23 0.45381 12.06498 36908 ft 445 kts 144°
2026-04-27 13:23 0.40211 12.09886 36914 ft 445 kts 144°
2026-04-27 13:24 0.35080 12.13257 36914 ft 444 kts 144°
2026-04-27 13:24 0.29907 12.16633 36911 ft 444 kts 144°
2026-04-27 13:25 0.24740 12.20009 36909 ft 444 kts 144°
2026-04-27 13:25 0.19577 12.23397 36912 ft 443 kts 144°
2026-04-27 13:26 0.15294 12.26197 36912 ft 443 kts 144°
2026-04-27 13:26 0.10136 12.29564 36911 ft 443 kts 144°
2026-04-27 13:27 0.04993 12.32931 36913 ft 442 kts 144°
2026-04-27 13:27 -0.00149 12.36305 36919 ft 442 kts 144°
2026-04-27 13:28 -0.05295 12.39672 36914 ft 442 kts 144°
2026-04-27 13:28 -0.10440 12.43038 36912 ft 442 kts 144°
2026-04-27 13:29 -0.15580 12.46402 36905 ft 442 kts 144°
2026-04-27 13:29 -0.20726 12.49764 36910 ft 442 kts 144°
2026-04-27 13:30 -0.25860 12.53130 36912 ft 441 kts 144°
2026-04-27 13:30 -0.30997 12.56489 36913 ft 441 kts 144°
2026-04-27 13:31 -0.36125 12.59837 36914 ft 441 kts 144°
2026-04-27 13:31 -0.41253 12.63195 36913 ft 440 kts 144°
2026-04-27 13:32 -0.46372 12.66550 36910 ft 440 kts 144°
2026-04-27 13:32 -0.51494 12.69903 36908 ft 440 kts 144°
2026-04-27 13:33 -0.56592 12.73234 36906 ft 441 kts 144°
2026-04-27 13:33 -0.61728 12.76579 36906 ft 440 kts 144°
2026-04-27 13:34 -0.66861 12.79932 36906 ft 441 kts 144°
2026-04-27 13:34 -0.71987 12.83291 36902 ft 441 kts 144°
2026-04-27 13:35 -0.77118 12.86657 36902 ft 441 kts 144°
2026-04-27 13:35 -0.82252 12.90015 36899 ft 441 kts 144°
2026-04-27 13:36 -0.87385 12.93376 36903 ft 441 kts 144°
2026-04-27 13:36 -0.92524 12.96735 36903 ft 441 kts 144°
2026-04-27 13:37 -0.97658 13.00102 36896 ft 442 kts 144°
2026-04-27 13:37 -1.02801 13.03465 36899 ft 442 kts 144°
2026-04-27 13:38 -1.07949 13.06832 36898 ft 443 kts 144°
2026-04-27 13:38 -1.13065 13.10179 36899 ft 443 kts 144°
2026-04-27 13:39 -1.18219 13.13555 36902 ft 443 kts 144°
2026-04-27 13:39 -1.23378 13.16928 36897 ft 443 kts 144°
2026-04-27 13:40 -1.28534 13.20305 36895 ft 443 kts 144°
2026-04-27 13:40 -1.33686 13.23682 36896 ft 443 kts 144°
2026-04-27 13:41 -1.38847 13.27058 36902 ft 443 kts 144°
2026-04-27 13:41 -1.44007 13.30438 36917 ft 443 kts 144°
2026-04-27 13:42 -1.49169 13.33819 36931 ft 444 kts 144°
2026-04-27 13:42 -1.54341 13.37202 36944 ft 444 kts 144°
2026-04-27 13:43 -1.59506 13.40591 36950 ft 444 kts 144°
2026-04-27 13:43 -1.64644 13.43958 36949 ft 445 kts 144°
2026-04-27 13:44 -1.69767 13.47427 36954 ft 445 kts 143°
2026-04-27 13:44 -1.74812 13.51000 36949 ft 445 kts 142°
2026-04-27 13:45 -1.79856 13.54580 36932 ft 445 kts 143°
2026-04-27 13:45 -1.84920 13.58136 36912 ft 445 kts 143°
2026-04-27 13:46 -1.90005 13.61677 36899 ft 446 kts 143°
2026-04-27 13:46 -1.95085 13.65231 36886 ft 446 kts 143°
2026-04-27 13:47 -2.00166 13.68792 36881 ft 446 kts 143°
2026-04-27 13:47 -2.05261 13.72356 36882 ft 447 kts 143°
2026-04-27 13:48 -2.10349 13.75924 36887 ft 447 kts 143°
2026-04-27 13:48 -2.15404 13.79473 36894 ft 447 kts 143°
2026-04-27 13:49 -2.20491 13.83042 36903 ft 447 kts 143°
2026-04-27 13:49 -2.25580 13.86619 36914 ft 447 kts 143°
2026-04-27 13:50 -2.30702 13.90145 36916 ft 447 kts 144°
2026-04-27 13:50 -2.35828 13.93666 36927 ft 447 kts 144°
2026-04-27 13:51 -2.40946 13.97202 36932 ft 447 kts 144°
2026-04-27 13:51 -2.46061 14.00746 36936 ft 447 kts 144°
2026-04-27 13:52 -2.51180 14.04290 36936 ft 447 kts 144°
2026-04-27 13:52 -2.56298 14.07827 36936 ft 447 kts 144°
2026-04-27 13:53 -2.63979 14.13126 36938 ft 447 kts 144°
2026-04-27 13:54 -2.69096 14.16653 36942 ft 447 kts 144°
2026-04-27 13:54 -2.74217 14.20185 36940 ft 447 kts 144°
2026-04-27 13:55 -2.79301 14.23701 36618 ft 450 kts 144°
2026-04-27 13:55 -2.81879 14.25486 36374 ft 451 kts 144°
2026-04-27 13:55 -2.84462 14.27279 36131 ft 453 kts 144°
2026-04-27 13:55 -2.87058 14.29082 35890 ft 455 kts 144°
2026-04-27 13:56 -2.89662 14.30889 35646 ft 457 kts 144°
2026-04-27 13:56 -2.92281 14.32704 35412 ft 458 kts 144°
2026-04-27 13:56 -2.94903 14.34515 35181 ft 459 kts 144°
2026-04-27 13:56 -2.97538 14.36331 34955 ft 460 kts 144°
2026-04-27 13:57 -3.00177 14.38151 34720 ft 461 kts 144°
2026-04-27 13:57 -3.02821 14.39980 34496 ft 462 kts 144°
2026-04-27 13:57 -3.05468 14.41814 34268 ft 462 kts 144°
2026-04-27 13:57 -3.08101 14.43639 34043 ft 461 kts 144°
2026-04-27 13:58 -3.10739 14.45465 33802 ft 460 kts 144°
2026-04-27 13:58 -3.13362 14.47279 33545 ft 457 kts 144°
2026-04-27 13:58 -3.15976 14.49087 33291 ft 455 kts 144°
2026-04-27 13:58 -3.18571 14.50878 33036 ft 452 kts 144°
2026-04-27 13:59 -3.21124 14.52639 32792 ft 450 kts 144°
2026-04-27 13:59 -3.23695 14.54412 32541 ft 448 kts 144°
2026-04-27 13:59 -3.26251 14.56180 32297 ft 446 kts 144°
2026-04-27 13:59 -3.28797 14.57944 32058 ft 444 kts 144°
2026-04-27 14:00 -3.31334 14.59701 31821 ft 443 kts 144°
2026-04-27 14:00 -3.33864 14.61453 31576 ft 441 kts 144°
2026-04-27 14:00 -3.36375 14.63193 31246 ft 435 kts 144°
2026-04-27 14:00 -3.38842 14.64902 30685 ft 427 kts 144°
2026-04-27 14:01 -3.41260 14.66578 30137 ft 419 kts 144°
2026-04-27 14:01 -3.43639 14.68223 29547 ft 412 kts 144°
2026-04-27 14:01 -3.45975 14.69835 29025 ft 404 kts 144°
2026-04-27 14:01 -3.48265 14.71415 28512 ft 396 kts 144°
2026-04-27 14:02 -3.50513 14.72970 28021 ft 390 kts 144°
2026-04-27 14:02 -3.52736 14.74513 27538 ft 388 kts 144°
2026-04-27 14:02 -3.54948 14.76048 27065 ft 385 kts 144°
2026-04-27 14:02 -3.57141 14.77571 26610 ft 382 kts 144°
2026-04-27 14:03 -3.59290 14.79062 26147 ft 380 kts 144°
2026-04-27 14:03 -3.61459 14.80564 25702 ft 378 kts 144°
2026-04-27 14:03 -3.63611 14.82054 25255 ft 375 kts 144°
2026-04-27 14:03 -3.65750 14.83536 24807 ft 373 kts 144°
2026-04-27 14:04 -3.67875 14.85007 24367 ft 370 kts 144°
2026-04-27 14:04 -3.69987 14.86466 23915 ft 368 kts 144°
2026-04-27 14:04 -3.72088 14.87918 23443 ft 366 kts 144°
2026-04-27 14:04 -3.74174 14.89363 22942 ft 363 kts 144°
2026-04-27 14:05 -3.76242 14.90798 22480 ft 361 kts 144°
2026-04-27 14:05 -3.78301 14.92226 22019 ft 359 kts 144°
2026-04-27 14:05 -3.80342 14.93644 21558 ft 356 kts 144°
2026-04-27 14:05 -3.82372 14.95054 21102 ft 353 kts 145°
2026-04-27 14:06 -3.84384 14.96448 20642 ft 351 kts 145°
2026-04-27 14:06 -3.86387 14.97835 20186 ft 349 kts 145°
2026-04-27 14:06 -3.88376 14.99210 19735 ft 346 kts 145°
2026-04-27 14:06 -3.90355 15.00578 19283 ft 344 kts 145°
2026-04-27 14:07 -3.92319 15.01938 18837 ft 342 kts 145°
2026-04-27 14:07 -3.94270 15.03291 18386 ft 340 kts 145°
2026-04-27 14:07 -3.96184 15.04619 17928 ft 338 kts 145°
2026-04-27 14:07 -3.98107 15.05955 17486 ft 335 kts 145°
2026-04-27 14:08 -4.00015 15.07281 17061 ft 332 kts 145°
2026-04-27 14:08 -4.01909 15.08595 16632 ft 330 kts 145°
2026-04-27 14:08 -4.03790 15.09898 16216 ft 328 kts 145°
2026-04-27 14:08 -4.05658 15.11191 15801 ft 325 kts 145°
2026-04-27 14:09 -4.07510 15.12471 15395 ft 323 kts 145°
2026-04-27 14:09 -4.09352 15.13746 14984 ft 320 kts 144°
2026-04-27 14:09 -4.11176 15.15012 14579 ft 318 kts 144°
2026-04-27 14:09 -4.12987 15.16270 14183 ft 315 kts 144°
2026-04-27 14:10 -4.14782 15.17518 13779 ft 312 kts 144°
2026-04-27 14:10 -4.16559 15.18754 13334 ft 309 kts 144°
2026-04-27 14:10 -4.18317 15.19978 12936 ft 307 kts 144°
2026-04-27 14:10 -4.20063 15.21192 12532 ft 304 kts 144°
2026-04-27 14:11 -4.21789 15.22394 12139 ft 301 kts 143°
2026-04-27 14:11 -4.23312 15.23800 11734 ft 296 kts 128°
2026-04-27 14:11 -4.24406 15.25524 11339 ft 292 kts 113°
2026-04-27 14:11 -4.25015 15.27417 10937 ft 288 kts 99°
2026-04-27 14:12 -4.25146 15.29406 10526 ft 285 kts 89°
2026-04-27 14:12 -4.25133 15.31382 10132 ft 283 kts 89°
2026-04-27 14:12 -4.25127 15.33371 10027 ft 286 kts 90°
2026-04-27 14:12 -4.25126 15.35363 9883 ft 286 kts 90°
2026-04-27 14:13 -4.25126 15.37364 9184 ft 287 kts 90°
2026-04-27 14:13 -4.25127 15.39348 8575 ft 282 kts 90°
2026-04-27 14:13 -4.25127 15.41292 8006 ft 277 kts 90°
2026-04-27 14:13 -4.25127 15.43214 7444 ft 275 kts 90°
2026-04-27 14:14 -4.25129 15.45120 6888 ft 273 kts 90°
2026-04-27 14:14 -4.25130 15.47015 6321 ft 271 kts 90°
2026-04-27 14:14 -4.25130 15.48890 5878 ft 262 kts 90°
2026-04-27 14:14 -4.25129 15.50624 5818 ft 236 kts 90°
2026-04-27 14:15 -4.25128 15.52196 5684 ft 220 kts 90°
2026-04-27 14:15 -4.25127 15.53729 5447 ft 220 kts 90°
2026-04-27 14:15 -4.25125 15.55268 5319 ft 221 kts 90°
2026-04-27 14:15 -4.25123 15.56802 5199 ft 219 kts 90°
2026-04-27 14:16 -4.25123 15.58258 5170 ft 197 kts 90°
2026-04-27 14:16 -4.25127 15.59549 5103 ft 176 kts 92°
2026-04-27 14:16 -4.25473 15.60649 4962 ft 162 kts 127°
2026-04-27 14:16 -4.26347 15.61297 4729 ft 162 kts 163°
2026-04-27 14:17 -4.27437 15.61232 4510 ft 157 kts 203°
2026-04-27 14:17 -4.28219 15.60518 4323 ft 151 kts 237°
2026-04-27 14:17 -4.28783 15.59637 4136 ft 150 kts 236°
2026-04-27 14:17 -4.29347 15.58762 3938 ft 149 kts 237°
2026-04-27 14:18 -4.29911 15.57888 3756 ft 149 kts 237°
2026-04-27 14:18 -4.30469 15.57023 3569 ft 148 kts 237°
2026-04-27 14:18 -4.31025 15.56160 3384 ft 147 kts 237°
2026-04-27 14:18 -4.31578 15.55302 3197 ft 146 kts 237°
2026-04-27 14:19 -4.32130 15.54447 3013 ft 146 kts 237°
2026-04-27 14:19 -4.32493 15.53884 2890 ft 145 kts 237°
2026-04-27 14:19 -4.33040 15.53035 2712 ft 145 kts 237°
2026-04-27 14:19 -4.33585 15.52189 2521 ft 144 kts 237°
2026-04-27 14:20 -4.34128 15.51347 2343 ft 144 kts 238°
2026-04-27 14:20 -4.34669 15.50507 2152 ft 143 kts 238°
2026-04-27 14:20 -4.35207 15.49672 1965 ft 143 kts 238°
2026-04-27 14:20 -4.35923 15.48562 1711 ft 143 kts 239°
2026-04-27 14:21 -4.36290 15.47992 1576 ft 144 kts 239°
2026-04-27 14:21 -4.36834 15.47148 1377 ft 146 kts 239°
2026-04-27 14:21 -4.37383 15.46296 1183 ft 145 kts 240°
2026-04-27 14:21 -4.37932 15.45447 1045 ft 145 kts 239°
2026-04-27 14:22 -4.38432 15.44668 1012 ft 96 kts 236°
2026-04-27 14:22 -4.38616 15.44479 1013 ft 11 kts 142°
2026-04-27 14:22 -4.38706 15.44543 1012 ft 31 kts 150°
2026-04-27 14:22 -4.38825 15.44599 1011 ft 0 kts 166°